Hourly Weather Roundup
Issued by NWS Central Illinois

Home | Current Version | Previous Version | Text Only | Print | Product List | Glossary On
Versions: 1 2 3 4 5 6 7 8 9 10 11 12 13 14 15 16 17 18 19 20 21 22 23 24 25 26 27 28 29 30 31 32 33 34 35 36 37 38 39 40 41 42 43 44 45 46 47 48 49 50
000
NZUS43 KILX 271210
HWRILX

AREA WEATHER ROUNDUP
NATIONAL WEATHER SERVICE, LINCOLN IL
700 AM CDT FRI MAR 27 2015


CITY           SKY/WX    TMP DP  RH WIND       PRES   REMARKS
BLOOMINGTON    CLEAR     27  19  71 N13       30.12R WCI  16
6HR MIN TEMP:  27; 6HR MAX TEMP:  33;

CHAMPAIGN      MOCLDY    30  22  72 N13       30.08R WCI  20
6HR MIN TEMP:  30; 6HR MAX TEMP:  33;

DECATUR        CLOUDY    31  21  66 N14       30.11R WCI  21
6HR MIN TEMP:  31; 6HR MAX TEMP:  34;

EFFINGHAM      CLOUDY    33  25  73 NW9       30.09R WCI  25
FLORA          CLOUDY    33  28  82 NW9       30.08R WCI  26
6HR MIN TEMP:  32; 6HR MAX TEMP:  36;

GALESBURG      MOCLDY    24  22  91 N8        30.15R WCI  15
JACKSONVILLE   CLOUDY    31  25  78 N7        30.15R WCI  24
6HR MIN TEMP:  30; 6HR MAX TEMP:  37;

LACON          CLEAR     27  13  57 N12       30.14R WCI  16
6HR MIN TEMP:  27; 6HR MAX TEMP:  31;

LAWRENCEVILLE  CLOUDY    34  28  79 N7        30.05R WCI  28
6HR MIN TEMP:  31; 6HR MAX TEMP:  35;

LITCHFIELD     MOCLDY    31  25  78 N12       30.11R WCI  22
$$


CITY           SKY/WX    TMP DP  RH WIND       PRES   REMARKS
LINCOLN        CLEAR     29  23  78 N6        30.15R WCI  23
6HR MIN TEMP:  29; 6HR MAX TEMP:  34;

MACOMB         CLEAR     26  23  91 N6        30.18R WCI  19
MATTOON        LGT SNOW  31  27  85 N8        30.07R FOG     WCI  23
6HR MIN TEMP:  31; 6HR MAX TEMP:  32; 6HR PCP: TRACE;

MT CARMEL AP   CLOUDY    36  30  80 N6        30.05R WCI  31
OLNEY-NOBLE AP MOCLDY    32  30  93 NW7       30.07R WCI  26
PARIS          CLOUDY    32  28  85 CALM      30.08R
6HR MIN TEMP:  31; 6HR MAX TEMP:  33;

PEORIA         CLOUDY    28  20  71 N5        30.15R WCI  23
6HR MIN TEMP:  27; 6HR MAX TEMP:  32;

PONTIAC        CLEAR     28  20  74 N13       30.13R WCI  17
RANTOUL        CLOUDY    31  23  72 N12       30.08S WCI  22
6HR MIN TEMP:  31; 6HR MAX TEMP:  34;

ROBINSON       MOCLDY    33  29  86 N7        30.07R WCI  26
6HR MIN TEMP:  31; 6HR MAX TEMP:  34;

SPRINGFIELD    PTCLDY    29  22  75 N9        30.14R WCI  20
6HR MIN TEMP:  29; 6HR MAX TEMP:  35;

TAYLORVILLE    CLOUDY    32  27  80 N13       30.11R WCI  22
$$

...REGIONAL REPORTS...


CITY           SKY/WX    TMP DP  RH WIND       PRES   REMARKS
CHICAGO O`HARE LGT SNOW  23  12  62 N16G23    30.13R WCI  10
KANKAKEE       FLURRIES  29  25  86 N8        30.11R WCI  21
MOLINE         CLOUDY    28  14  55 N13       30.17R WCI  17
MOUNT VERNON   CLOUDY    36  25  64 N5        30.08R WCI  32
PITTSFIELD     PTCLDY    31  24  75 N7        30.16R WCI  24
QUINCY         CLEAR     27  20  75 N8        30.15R WCI  19
ROCKFORD       MOCLDY    22   8  55 N16       30.19R WCI   8
$$


CITY           SKY/WX    TMP DP  RH WIND       PRES   REMARKS
BURLINGTON     CLOUDY    30  24  78 N9        30.16R WCI  22
CEDAR RAPIDS   CLEAR     24  19  81 NE14G20   30.18R WCI  12
DES MOINES     CLEAR     26  17  68 N8        30.23R WCI  18
KIRKSVILLE     MOCLDY    31  20  63 N7        30.18R WCI  24
OTTUMWA        MOCLDY    26  21  81 N9        30.19R WCI  17
ST LOUIS       FLURRIES  35  25  66 N10       30.13R WCI  27
$$


CITY           SKY/WX    TMP DP  RH WIND       PRES   REMARKS
TERRE HAUTE    CLOUDY    32  26  78 N8        30.06R WCI  25
EVANSVILLE     CLOUDY    36  29  75 N7        30.03S WCI  30
INDIANAPOLIS   MOCLDY    31  22  69 N7        30.02R WCI  24
LAFAYETTE      PTCLDY    27  21  78 N8        30.07R WCI  19
MADISON        PTCLDY    16   7  67 N6        30.19R WCI   7
MILWAUKEE      PTCLDY    18   4  54 N10       30.16R WCI   6
$$





USA.gov is the U.S. government's official web portal to all federal, state and local government web resources and services.